Location: Unspecified
(44.4377°N, 88.0525°W)
Time: 21:46:37
(UTC-05:00)

CZ-3 Stage 3 - Visible Passes

Search period start: 23 March 2019 00:00
Search period end: 02 April 2019 00:00
Orbit: 472 x 34720 km, 30.5° (Epoch: 22 March)

Date Brightness Start Highest point End Pass type
(mag) Time Alt. Az. Time Alt. Az. Time Alt. Az.
24 Mar 6.0 05:11:43 15° SW 05:28:47 58° SSE 14:10:40 10° SSE visible
25 Mar 6.6 01:43:12 10° SE 01:49:56 13° ESE 02:05:30 10° E visible
27 Mar 6.0 05:01:55 17° SW 05:18:10 58° SSE 13:59:14 10° SSE visible
28 Mar 6.6 01:33:23 11° ESE 01:39:14 13° ESE 01:54:32 10° E visible
30 Mar 5.9 04:52:04 19° SW 05:07:32 58° SSE 13:47:44 10° SSE visible
31 Mar 6.5 01:23:32 12° ESE 01:28:33 13° ESE 01:43:35 10° E visible
